Location: Krasnoyarskiy Pitomnik
(51.1333°N, 71.6167°E)
Time: 14:30:38
(UTC+00:00)

Transit 2A - Pass Details

Date: 14 April 2024
Orbit: 594 x 958 km, 66.7° (Epoch: 27 May)

Event Time Altitude Azimuth Distance (km) Brightness Sun altitude
Rises 03:17:05 0° 205° (SSW) 2,834 8.9 26.5°
Reaches altitude 10° 03:19:17 10° 202° (SSW) 1,954 8.2 26.8°
Maximum altitude 03:23:35 62° 122° (ESE) 714 7.0 27.5°
Drops below altitude 10° 03:28:15 10° 43° (NE) 2,112 8.6 28.2°
Sets 03:30:42 0° 40° (NE) 3,086 9.4 28.5°
